Regional Weather Roundup
Issued by NWS

Home | Current Version | Previous Version | Graphics & Text | Print | Product List | Glossary On
Versions: 1 2 3 4 5 6 7 8 9 10 11 12 13 14 15 16 17 18 19 20 21 22 23 24 25 26 27 28 29 30 31 32 33 34 35 36 37 38 39 40 41 42 43 44 45 46 47 48 49 50
000
ASUS43 KBIS 232302
RWRND

NORTH DAKOTA REGIONAL WEATHER ROUNDUP
NATIONAL WEATHER SERVICE BISMARCK ND
600 PM CDT TUE AUG 23 2016

NOTE: "FAIR" INDICATES FEW OR NO CLOUDS BELOW 12,000 FEET WITH NO
SIGNIFICANT WEATHER AND/OR OBSTRUCTIONS TO VISIBILITY.


NDZ001>003-009>011-017-240000-
NORTHWEST NORTH DAKOTA

CITY           SKY/WX    TMP DP  RH WIND       PRES   REMARKS
WILLISTON      MOSUNNY   77  40  26 W20G36    29.85R
MINOT          SUNNY     80  40  23 W13G26    29.79S
MINOT AFB      SUNNY     80  41  25 NW10G20   29.77S
$$

NDZ018>021-031>035-040>046-240000-
SOUTHWEST NORTH DAKOTA

CITY           SKY/WX    TMP DP  RH WIND       PRES   REMARKS
BISMARCK       SUNNY     81  37  20 NW17G24   29.82S
DICKINSON      SUNNY     77  30  17 NW18G26   29.89R
GARRISON         N/A     79  41  25 NW17G24   29.82R
HETTINGER ARPT SUNNY     80  35  19 NW20G25   29.93R
$$

NDZ004>008-012>016-024-026-027-054-240000-
NORTHEAST NORTH DAKOTA

CITY           SKY/WX    TMP DP  RH WIND       PRES   REMARKS
GRAND FORKS    CLOUDY    84  69  60 SW10      29.65S
GRND FRKS AFB  CLOUDY    84  69  60 SW12      29.66F
DEVILS LAKE    MOSUNNY   78  66  66 NW12      29.72S
$$

NDZ022-023-025-028>030-036>039-047>053-240000-
SOUTHEAST NORTH DAKOTA

CITY           SKY/WX    TMP DP  RH WIND       PRES   REMARKS
FARGO          MOSUNNY   88  64  44 S28G35    29.69S
JAMESTOWN      CLOUDY    74  64  71 N7        29.75R
$$





USA.gov is the U.S. government's official web portal to all federal, state and local government web resources and services.